Lid_Strength_Index
2 2 3 4 4 4 5 5 5 4 4 4 4 3 3 4 3 2 0 -1 2 3 3 2 2 4 3 4 6 5 5 5 5 7 7 7 9 8 12 10 9 10 10 10 9 11 15 5 5 8 6 4 4 4
2 3 3 4 5 5 5 5 5 5 4 4 4 4 3 3 3 3 1 -1 -1 2 3 0 0 0 1 1 4 3 5 5 5 7 5 7 8 7 10 12 6 12 7 9 8 10 5 4 5 4 3 4 4 4
2 2 3 4 5 5 5 5 5 5 4 4 4 4 3 3 3 3 0 -1 0 2 3 2 3 0 -1 -0 -0 5 4 3 4 3 5 6 9 7 10 9 8 6 4 7 8 6 5 5 4 3 3 3 3 3
2 3 3 4 5 5 5 5 5 4 4 4 3 3 3 3 3 3 0 -1 0 2 4 4 -0 1 -1 -1 0 0 2 1 2 2 4 6 8 4 7 6 7 6 5 7 9 6 5 5 3 3 3 3 3 3
3 3 3 4 6 5 5 5 5 4 4 3 3 3 3 3 3 1 -1 -1 -1 2 5 4 1 0 0 0 1 1 1 2 3 4 5 7 4 5 4 5 8 5 7 9 9 5 5 4 3 3 3 3 3 3
3 3 4 5 6 5 5 5 5 5 4 3 3 3 3 3 3 -0 2 -0 -0 -0 3 5 1 2 1 1 1 2 1 2 2 4 5 4 4 5 6 9 5 4 4 4 5 3 3 3 2 2 3 2 3 3
3 3 4 5 6 5 5 5 4 4 3 4 3 3 3 3 1 2 3 2 3 -1 3 5 5 2 1 1 1 1 1 1 3 3 5 4 4 5 6 10 5 4 4 3 3 3 4 3 3 2 2 2 3 3
3 4 5 5 6 5 5 4 4 4 4 4 3 3 3 3 3 2 0 2 2 1 2 4 5 4 1 3 4 1 2 2 3 3 3 4 3 4 9 6 5 4 3 3 3 3 3 2 2 2 2 2 4 4
4 4 5 6 6 5 4 4 4 4 4 3 3 3 0 1 2 1 2 2 -2 1 4 4 6 7 1 3 2 3 2 5 2 4 4 4 6 9 7 6 5 4 4 4 3 3 3 3 3 3 2 3 4 4
5 5 6 6 5 4 4 4 4 4 3 3 2 2 3 1 3 1 1 1 2 1 1 4 2 5 3 3 4 4 3 4 7 5 3 6 8 4 4 3 3 3 2 2 4 4 4 4 3 3 3 2 3 3
5 5 6 6 5 5 4 4 4 3 2 1 2 3 0 2 0 1 4 4 3 4 3 3 4 5 2 5 5 3 5 4 8 7 6 8 9 5 3 3 2 2 2 2 2 2 2 2 3 3 2 2 2 2
5 5 6 5 5 5 4 4 4 -0 0 2 2 1 -0 1 3 6 5 4 5 6 3 4 4 3 2 2 4 3 6 5 9 4 7 11 7 4 3 3 2 2 2 2 2 2 2 2 2 2 2 2 2 2
5 5 6 5 5 5 4 4 3 3 3 -1 1 4 4 4 10 8 9 6 6 3 3 3 4 3 3 2 3 4 7 7 3 7 10 9 5 3 3 3 2 2 2 2 2 2 2 2 1 2 2 1 2 2
5 5 5 5 5 4 4 4 3 2 0 3 5 11 5 7 6 5 6 6 4 2 3 3 3 4 3 4 4 8 6 5 8 10 11 7 5 4 3 2 2 3 2 2 2 2 2 2 2 2 1 1 2 2
5 5 5 5 5 4 4 3 3 -1 1 4 4 10 6 4 4 4 3 4 3 2 3 3 3 3 4 5 4 6 8 9 8 11 7 5 3 3 3 3 2 2 2 3 3 2 2 2 2 3 1 1 1 2
5 5 4 5 5 4 4 1 -1 -1 1 3 4 5 4 5 5 4 4 4 3 3 2 3 5 6 6 6 7 8 9 10 8 7 5 3 3 3 2 2 2 2 2 2 3 2 2 2 2 2 1 1 2 2
6 3 5 5 4 3 3 0 -0 4 3 4 4 2 3 4 4 4 4 4 2 3 5 4 8 8 5 6 8 5 8 6 4 3 3 2 3 2 2 2 2 2 2 2 2 2 2 1 1 2 3 2 2 2
2 3 4 4 2 1 -1 1 2 3 5 3 4 4 3 2 3 3 3 2 3 4 4 5 4 7 7 9 7 6 4 3 2 3 3 2 2 2 2 2 2 2 1 2 1 2 1 2 2 2 2 2 2 2
3 3 4 4 2 1 3 3 2 6 4 3 2 1 2 3 2 2 2 2 2 2 3 4 7 7 6 5 5 4 3 3 4 3 2 2 1 2 2 2 2 1 1 1 2 2 2 2 2 2 1 1 2 1
4 4 4 4 3 2 6 4 2 4 5 4 3 3 2 3 2 2 2 2 3 4 5 6 6 5 5 4 3 3 3 2 3 3 3 2 2 2 1 2 2 1 1 1 1 3 2 2 2 2 2 2 2 2
6 3 4 2 1 2 3 4 4 4 4 4 3 3 3 2 3 3 4 3 4 4 5 4 3 3 2 2 2 2 1 2 3 3 3 3 2 2 1 1 1 1 1 1 2 2 3 2 2 1 2 2 1 1
3 5 2 2 4 4 4 2 3 3 3 4 4 3 4 4 4 4 3 4 4 3 3 3 2 2 3 2 1 1 1 1 1 2 5 3 2 2 2 2 2 2 1 1 1 1 1 1 1 1 2 2 2 1
5 3 3 4 6 7 7 2 5 5 7 6 4 6 5 4 3 2 4 3 3 2 2 1 2 1 2 1 1 1 0 1 1 1 1 2 1 1 1 1 1 1 2 1 0 1 1 3 1 1 1 2 2 2
5 4 6 6 6 8 5 6 4 5 5 6 6 7 6 4 2 4 5 4 3 1 2 1 2 2 2 1 2 2 1 1 1 1 1 1 2 1 1 1 1 1 0 0 0 1 0 0 3 1 1 2 2 2
8 8 7 12 6 8 8 8 7 7 8 7 7 7 5 3 5 6 6 4 2 2 2 1 2 2 2 2 2 1 0 1 1 2 1 1 1 1 2 1 1 0 0 1 1 1 1 1 1 1 1 1 2 2
11 7 9 8 7 8 8 9 8 8 7 7 7 4 4 4 8 8 5 3 2 2 2 2 2 3 2 2 2 2 1 0 0 2 1 1 1 2 2 2 2 2 -0 0 1 2 2 1 1 1 2 2 6 3
10 8 6 3 4 5 6 5 5 6 8 8 6 6 6 9 8 5 3 1 1 0 0 0 1 1 2 1 1 0 0 0 0 1 0 1 1 1 1 2 2 1 0 0 0 1 2 2 3 2 2 2 2 3
5 5 8 6 6 4 7 7 7 8 6 4 4 7 8 7 6 3 2 -0 -0 -0 0 -1 -1 -0 0 0 0 0 -0 -0 -0 -0 0 0 0 1 0 -0 -0 7 2 0 0 0 1 1 1 2 2 2 2 1
6 4 4 6 6 6 6 6 5 3 2 3 5 5 4 2 1 1 -0 -0 -1 0 1 1 1 0 -0 -0 -0 -0 0 1 2 3 3 3 3 2 2 2 2 2 3 3 7 7 3 2 1 1 1 1 1 1
5 3 5 6 7 6 4 2 3 2 1 1 1 1 2 2 0 -1 -0 0 1 1 1 1 0 1 1 1 1 1 0 1 2 3 5 5 5 4 4 4 4 4 3 4 4 4 7 4 3 0 1 1 2 3
3 3 5 5 6 4 2 1 0 0 1 1 1 3 3 2 1 -0 -0 -0 0 0 1 1 1 0 1 1 1 2 2 1 1 2 3 4 4 4 4 3 3 3 4 4 5 5 5 5 3 2 1 2 1 3
3 5 5 7 4 2 1 2 3 3 3 4 4 3 3 3 4 1 0 -0 1 1 4 3 1 1 0 0 0 0 7 1 2 2 3 3 3 3 3 4 4 4 4 4 5 5 5 5 5 4 3 3 2 2
3 3 3 3 4 5 2 3 4 5 4 4 4 3 3 3 4 1 -1 -1 -0 1 1 1 1 0 0 1 1 1 4 1 3 8 7 9 9 7 5 4 4 5 5 5 5 5 5 5 5 5 4 4 4 3